Klamath Falls, OR

5:16 PM PST on November 24, 2017 (GMT -0800)
Klamath Falls International

Weather History for KLMT - November, 2012

Change the Weather History Date:

Monday, November 19, 2012

  Actual Average Record
Temperature  
Mean Temperature 44 °F 34 °F  
Max Temperature 49 °F 44 °F 61 °F (1989)
Min Temperature 38 °F 24 °F -1 °F (1994)
Degree Days  
Heating Degree Days 21 31  
Month to date heating degree days 489 528  
Since 1 July heating degree days 1192 1444  
Cooling Degree Days 0 0  
Month to date cooling degree days 0 0  
Year to date cooling degree days 177 169  
Moisture  
Dew Point 33 °F    
Average Humidity 68    
Maximum Humidity 76    
Minimum Humidity 60    
Precipitation  
Precipitation 0.00 in 0.08 in 1.26 in (1946)
Month to date precipitation 0.30 1.35  
Year to date precipitation 6.98 12.67  
Sea Level Pressure  
Sea Level Pressure 29.94 in    
Wind  
Wind Speed 24 mph (South)    
Max Wind Speed 39 mph    
Max Gust Speed 49 mph    
Visibility 10 miles    
Events      
T = Trace of Precipitation, MM = Missing Value Source: NWS Daily Summary

Daily Weather History Graph

Daily Weather History Graph

Search for Another Location

Airport or City:

Trip Planner

Search our weather history database for the weather conditions in past years. The results will help you decide how hot, cold, wet, or windy it might be!

Date:

Astronomy

Nov. 19, 2012 Rise Set
Actual Time 7:02 AM PST 4:41 PM PST
Civil Twilight 6:32 AM PST 5:12 PM PST
Nautical Twilight 5:58 AM PST 5:46 PM PST
Astronomical Twilight 5:24 AM PST 6:19 PM PST
Moon 12:06 PM PST (11/19) 11:17 PM PST (11/19)
Length of Visible Light 10h 39m
Length of Day
9h 38m
Waxing Crescent, 42% of the Moon is Illuminated
Nov 19
Waxing Crescent
Nov 20
First Quarter
Nov 28
Full
Dec 6
Last Quarter
Dec 13
New

Hourly Weather History & Observations

Time (PST) Temp. Windchill Dew Point Humidity Pressure Visibility Wind Dir Wind Speed Gust Speed Precip Events Conditions
12:53 AM 39.9 °F 31.1 °F 30.0 °F 68% 30.00 in 10.0 mi SSW 17.3 mph 25.3 mph N/A   Overcast
1:53 AM 39.0 °F 31.0 °F 30.0 °F 70% 30.01 in 10.0 mi South 13.8 mph - N/A   Overcast
2:53 AM 37.9 °F 30.5 °F 30.0 °F 73% 30.01 in 10.0 mi South 11.5 mph - N/A   Overcast
4:53 AM 37.9 °F 29.2 °F 30.9 °F 76% 30.01 in 10.0 mi South 15.0 mph - N/A   Overcast
5:53 AM 39.0 °F 32.3 °F 30.9 °F 73% 30.01 in 10.0 mi South 10.4 mph - N/A   Overcast
6:00 AM 39.2 °F 32.5 °F 30.2 °F 70% 30.00 in 10.0 mi SSW 10.4 mph - N/A   Overcast
6:53 AM 39.9 °F 32.5 °F 30.9 °F 70% 30.00 in 10.0 mi South 12.7 mph - N/A   Mostly Cloudy
7:53 AM 39.9 °F 31.1 °F 32.0 °F 73% 30.00 in 10.0 mi South 17.3 mph - N/A   Mostly Cloudy
8:53 AM 41.0 °F 32.8 °F 33.1 °F 73% 30.00 in 10.0 mi South 16.1 mph - N/A   Overcast
9:53 AM 42.1 °F 33.6 °F 34.0 °F 73% 30.01 in 10.0 mi South 18.4 mph - N/A   Overcast
10:53 AM 45.0 °F 35.8 °F 35.1 °F 68% 29.97 in 10.0 mi South 26.5 mph 34.5 mph N/A   Overcast
11:53 AM 46.9 °F - 34.0 °F 61% 29.95 in 10.0 mi South 29.9 mph 41.4 mph N/A   Overcast
12:53 PM 48.0 °F - 35.1 °F 61% 29.92 in 10.0 mi SSW 29.9 mph 46.0 mph N/A   Overcast
1:53 PM 46.9 °F - 35.1 °F 63% 29.90 in 10.0 mi SSW 33.4 mph 44.9 mph N/A   Mostly Cloudy
2:53 PM 46.9 °F - 34.0 °F 61% 29.88 in 10.0 mi SSW 32.2 mph 47.2 mph N/A   Mostly Cloudy
3:53 PM 45.0 °F 34.9 °F 34.0 °F 65% 29.89 in 10.0 mi South 32.2 mph 46.0 mph N/A   Mostly Cloudy
4:53 PM 45.0 °F 34.7 °F 34.0 °F 65% 29.88 in 10.0 mi South 33.4 mph 41.4 mph N/A   Mostly Cloudy
5:53 PM 45.0 °F 35.1 °F 34.0 °F 65% 29.89 in 7.0 mi South 31.1 mph 42.6 mph N/A   Mostly Cloudy
7:53 PM 46.0 °F 37.2 °F 36.0 °F 68% 29.88 in 7.0 mi South 26.5 mph 38.0 mph N/A   Mostly Cloudy
8:53 PM 46.0 °F 36.9 °F 36.0 °F 68% 29.87 in 7.0 mi South 28.8 mph 49.5 mph N/A   Mostly Cloudy
9:53 PM 46.0 °F 36.9 °F 36.0 °F 68% 29.87 in 7.0 mi South 28.8 mph 44.9 mph N/A   Mostly Cloudy
10:53 PM 46.0 °F 36.9 °F 37.0 °F 71% 29.87 in 10.0 mi South 28.8 mph 41.4 mph N/A   Scattered Clouds
11:53 PM 46.9 °F - 36.0 °F 66% 29.87 in 10.0 mi South 25.3 mph 34.5 mph N/A   Overcast